| time (UTC) | temp F | wind direction | speed MPH | gust MPH | rain 1hr in | rain 24hr in | rain mn in | humidity % | barometer mb |
| 20260504050618 | 34 | 349 | 0.0 | 0.0 | 0.00 | 0.00 | 0.00 | 86 | 1034.8 |
| 20260504050115 | 34 | 0 | 0.0 | 1.0 | 0.00 | 0.00 | 0.00 | 86 | 1034.8 |
| 20260504045612 | 34 | 9 | 1.0 | 1.0 | 0.00 | 0.00 | 0.00 | 87 | 1034.8 |
| 20260504045106 | 34 | 349 | 0.0 | 0.0 | 0.00 | 0.00 | 0.00 | 87 | 1034.9 |
| 20260504044604 | 34 | 1 | 1.0 | 1.0 | 0.00 | 0.00 | 0.00 | 86 | 1034.9 |
| 20260504044101 | 34 | 9 | 1.0 | 1.0 | 0.00 | 0.00 | 0.00 | 86 | 1035.0 |
| 20260504043558 | 34 | 326 | 0.0 | 0.0 | 0.00 | 0.00 | 0.00 | 85 | 1035.0 |
| 20260504043055 | 34 | 326 | 0.0 | 0.0 | 0.00 | 0.00 | 0.00 | 85 | 1034.9 |
| 20260504042552 | 34 | 326 | 0.0 | 0.0 | 0.00 | 0.00 | 0.00 | 85 | 1035.0 |
| 20260504042049 | 34 | 326 | 0.0 | 0.0 | 0.00 | 0.00 | 0.00 | 85 | 1034.9 |
| 20260504041545 | 34 | 326 | 0.0 | 0.0 | 0.00 | 0.00 | 0.00 | 84 | 1035.1 |
| 20260504041041 | 34 | 326 | 0.0 | 0.0 | 0.00 | 0.00 | 0.00 | 84 | 1035.1 |
| 20260504040539 | 34 | 326 | 0.0 | 0.0 | 0.00 | 0.00 | 0.00 | 83 | 1035.0 |
| 20260504040035 | 34 | 326 | 0.0 | 0.0 | 0.00 | 0.00 | 0.00 | 83 | 1035.1 |
| 20260504035532 | 34 | 326 | 0.0 | 0.0 | 0.00 | 0.00 | 0.00 | 82 | 1035.1 |
| 20260504035028 | 34 | 326 | 0.0 | 0.0 | 0.00 | 0.00 | 0.00 | 81 | 1035.1 |
| 20260504034526 | 34 | 326 | 0.0 | 0.0 | 0.00 | 0.00 | 0.00 | 81 | 1035.0 |
| 20260504034023 | 35 | 326 | 0.0 | 0.0 | 0.00 | 0.00 | 0.00 | 81 | 1035.2 |
| 20260504033521 | 35 | 325 | 0.0 | 0.0 | 0.00 | 0.00 | 0.00 | 81 | 1035.4 |
| 20260504033018 | 35 | 325 | 0.0 | 0.0 | 0.00 | 0.00 | 0.00 | 82 | 1035.2 |
| 20260504032515 | 35 | 326 | 0.0 | 0.0 | 0.00 | 0.00 | 0.00 | 82 | 1035.4 |
| 20260504032012 | 35 | 326 | 0.0 | 0.0 | 0.00 | 0.00 | 0.00 | 81 | 1035.5 |
| 20260504031509 | 35 | 324 | 0.0 | 0.0 | 0.00 | 0.00 | 0.00 | 82 | 1035.5 |
| 20260504031005 | 35 | 326 | 0.0 | 0.0 | 0.00 | 0.00 | 0.00 | 81 | 1035.5 |
| 20260504030503 | 36 | 327 | 0.0 | 0.0 | 0.00 | 0.00 | 0.00 | 80 | 1035.3 |
| 20260504025958 | 36 | 326 | 0.0 | 0.0 | 0.00 | 0.00 | 0.00 | 79 | 1035.5 |
| 20260504025455 | 37 | 326 | 0.0 | 0.0 | 0.00 | 0.00 | 0.00 | 79 | 1035.4 |
| 20260504024952 | 36 | 326 | 0.0 | 0.0 | 0.00 | 0.00 | 0.00 | 79 | 1035.7 |
| 20260504024449 | 37 | 326 | 0.0 | 0.0 | 0.00 | 0.00 | 0.00 | 77 | 1035.6 |
| 20260504023946 | 37 | 327 | 0.0 | 0.0 | 0.00 | 0.00 | 0.00 | 78 | 1035.7 |
| 20260504023443 | 37 | 327 | 0.0 | 0.0 | 0.00 | 0.00 | 0.00 | 78 | 1035.6 |
| 20260504022938 | 37 | 328 | 0.0 | 0.0 | 0.00 | 0.00 | 0.00 | 77 | 1036.0 |
| 20260504022435 | 37 | 328 | 0.0 | 0.0 | 0.00 | 0.00 | 0.00 | 77 | 1035.8 |
| 20260504021932 | 37 | 328 | 0.0 | 0.0 | 0.00 | 0.00 | 0.00 | 77 | 1035.8 |
| 20260504021429 | 37 | 329 | 0.0 | 0.0 | 0.00 | 0.00 | 0.00 | 77 | 1036.2 |
| 20260504020926 | 37 | 330 | 0.0 | 0.0 | 0.00 | 0.00 | 0.00 | 77 | 1036.0 |
| 20260504020423 | 38 | 330 | 0.0 | 0.0 | 0.00 | 0.00 | 0.00 | 76 | 1036.0 |
| 20260504015919 | 38 | 330 | 0.0 | 0.0 | 0.00 | 0.00 | 0.00 | 76 | 1035.8 |
| 20260504015415 | 38 | 329 | 0.0 | 0.0 | 0.00 | 0.00 | 0.00 | 75 | 1036.1 |
| 20260504014912 | 38 | 329 | 0.0 | 0.0 | 0.00 | 0.00 | 0.00 | 75 | 1036.0 |
| 20260504014408 | 39 | 329 | 0.0 | 0.0 | 0.00 | 0.00 | 0.00 | 74 | 1035.8 |
| 20260504013904 | 39 | 329 | 0.0 | 0.0 | 0.00 | 0.00 | 0.00 | 73 | 1035.7 |
| 20260504013403 | 39 | 330 | 0.0 | 0.0 | 0.00 | 0.00 | 0.00 | 72 | 1035.6 |
| 20260504012859 | 39 | 329 | 0.0 | 0.0 | 0.00 | 0.00 | 0.00 | 71 | 1035.6 |
| 20260504012357 | 39 | 329 | 0.0 | 0.0 | 0.00 | 0.00 | 0.00 | 70 | 1035.8 |
| 20260504011854 | 39 | 329 | 0.0 | 0.0 | 0.00 | 0.00 | 0.00 | 70 | 1035.8 |
| 20260504011351 | 40 | 329 | 0.0 | 0.0 | 0.00 | 0.00 | 0.00 | 71 | 1035.7 |
| 20260504010847 | 40 | 329 | 0.0 | 0.0 | 0.00 | 0.00 | 0.00 | 71 | 1035.6 |
| 20260504010342 | 41 | 329 | 0.0 | 0.0 | 0.00 | 0.00 | 0.00 | 70 | 1035.5 |
| 20260504005839 | 41 | 335 | 0.0 | 0.0 | 0.00 | 0.00 | 0.00 | 66 | 1035.3 |
| 20260504005336 | 41 | 335 | 0.0 | 0.0 | 0.00 | 0.00 | 0.00 | 64 | 1035.2 |
| 20260504004833 | 41 | 335 | 0.0 | 0.0 | 0.00 | 0.00 | 0.00 | 65 | 1035.3 |
| 20260504004331 | 42 | 335 | 0.0 | 0.0 | 0.00 | 0.00 | 0.00 | 64 | 1035.2 |
| 20260504003827 | 42 | 335 | 0.0 | 0.0 | 0.00 | 0.00 | 0.00 | 65 | 1035.1 |
| 20260504003324 | 42 | 335 | 0.0 | 0.0 | 0.00 | 0.00 | 0.00 | 65 | 1035.2 |
| 20260504002821 | 42 | 335 | 0.0 | 0.0 | 0.00 | 0.00 | 0.00 | 65 | 1035.3 |
| 20260504002318 | 42 | 335 | 0.0 | 0.0 | 0.00 | 0.00 | 0.00 | 64 | 1035.1 |
| 20260504001816 | 43 | 339 | 0.0 | 0.0 | 0.00 | 0.00 | 0.00 | 61 | 1035.2 |
| 20260504001313 | 44 | 340 | 0.0 | 0.0 | 0.00 | 0.00 | 0.00 | 59 | 1035.0 |
| 20260504000809 | 44 | 340 | 0.0 | 0.0 | 0.00 | 0.00 | 0.00 | 57 | 1035.0 |
| 20260504000306 | 44 | 340 | 0.0 | 0.0 | 0.00 | 0.00 | 0.00 | 58 | 1035.0 |
| 20260503235804 | 45 | 340 | 0.0 | 0.0 | 0.00 | 0.00 | 0.00 | 58 | 1035.2 |
| 20260503235302 | 45 | 340 | 0.0 | 0.0 | 0.00 | 0.00 | 0.00 | 56 | 1035.2 |
| 20260503234759 | 46 | 340 | 0.0 | 0.0 | 0.00 | 0.00 | 0.00 | 54 | 1035.1 |
| 20260503234257 | 46 | 340 | 0.0 | 0.0 | 0.00 | 0.00 | 0.00 | 54 | 1035.0 |
| 20260503233754 | 47 | 340 | 0.0 | 0.0 | 0.00 | 0.00 | 0.00 | 53 | 1035.0 |
| 20260503233249 | 47 | 341 | 0.0 | 0.0 | 0.00 | 0.00 | 0.00 | 52 | 1034.9 |
| 20260503232747 | 47 | 355 | 0.0 | 0.0 | 0.00 | 0.00 | 0.00 | 51 | 1034.9 |
| 20260503232244 | 48 | 347 | 0.0 | 0.0 | 0.00 | 0.00 | 0.00 | 51 | 1034.9 |
| 20260503231742 | 48 | 343 | 0.0 | 0.0 | 0.00 | 0.00 | 0.00 | 52 | 1034.9 |
| 20260503231239 | 48 | 12 | 0.0 | 1.0 | 0.00 | 0.00 | 0.00 | 47 | 1035.0 |
| 20260503230734 | 48 | 319 | 3.0 | 3.0 | 0.00 | 0.00 | 0.00 | 46 | 1034.8 |
| 20260503230232 | 49 | 324 | 0.0 | 1.0 | 0.00 | 0.00 | 0.00 | 46 | 1034.8 |
| 20260503225729 | 49 | 311 | 1.0 | 1.0 | 0.00 | 0.00 | 0.00 | 45 | 1035.0 |
| 20260503225229 | 49 | 329 | 0.0 | 1.0 | 0.00 | 0.00 | 0.00 | 45 | 1034.9 |
| 20260503224727 | 49 | 294 | 1.0 | 2.0 | 0.00 | 0.00 | 0.00 | 47 | 1035.1 |
| 20260503224224 | 49 | 317 | 0.0 | 1.0 | 0.00 | 0.00 | 0.00 | 47 | 1034.8 |
| 20260503223722 | 49 | 321 | 0.0 | 1.0 | 0.00 | 0.00 | 0.00 | 45 | 1035.1 |
| 20260503223219 | 50 | 340 | 0.0 | 0.0 | 0.00 | 0.00 | 0.00 | 46 | 1035.0 |
| 20260503222715 | 51 | 323 | 0.0 | 1.0 | 0.00 | 0.00 | 0.00 | 45 | 1034.9 |
| 20260503222213 | 50 | 307 | 2.0 | 2.0 | 0.00 | 0.00 | 0.00 | 44 | 1034.9 |
| 20260503221712 | 50 | 349 | 1.0 | 2.0 | 0.00 | 0.00 | 0.00 | 47 | 1034.9 |
| 20260503221209 | 49 | 319 | 0.0 | 1.0 | 0.00 | 0.00 | 0.00 | 49 | 1035.0 |
| 20260503220705 | 49 | 342 | 1.0 | 2.0 | 0.00 | 0.00 | 0.00 | 48 | 1034.9 |
| 20260503220202 | 49 | 325 | 0.0 | 0.0 | 0.00 | 0.00 | 0.00 | 49 | 1034.8 |
| 20260503215659 | 49 | 319 | 1.0 | 1.0 | 0.00 | 0.00 | 0.00 | 47 | 1035.1 |
| 20260503215155 | 49 | 322 | 0.0 | 0.0 | 0.00 | 0.00 | 0.00 | 49 | 1034.9 |
| 20260503214654 | 49 | 344 | 0.0 | 0.0 | 0.00 | 0.00 | 0.00 | 49 | 1034.8 |
| 20260503214149 | 49 | 325 | 1.0 | 2.0 | 0.00 | 0.00 | 0.00 | 48 | 1034.7 |
| 20260503213643 | 49 | 308 | 1.0 | 2.0 | 0.00 | 0.00 | 0.00 | 48 | 1035.0 |
| 20260503213140 | 50 | 326 | 0.0 | 0.0 | 0.00 | 0.00 | 0.00 | 46 | 1034.9 |
| 20260503212637 | 51 | 118 | 0.0 | 2.0 | 0.00 | 0.00 | 0.00 | 46 | 1034.8 |
| 20260503212134 | 51 | 315 | 1.0 | 1.0 | 0.00 | 0.00 | 0.00 | 44 | 1034.9 |
| 20260503211632 | 51 | 301 | 2.0 | 2.0 | 0.00 | 0.00 | 0.00 | 46 | 1034.7 |
| 20260503211127 | 50 | 325 | 0.0 | 1.0 | 0.00 | 0.00 | 0.00 | 47 | 1034.9 |
| 20260503210624 | 49 | 308 | 1.0 | 1.0 | 0.00 | 0.00 | 0.00 | 47 | 1034.9 |
| 20260503210121 | 48 | 329 | 0.0 | 1.0 | 0.00 | 0.00 | 0.00 | 48 | 1034.9 |
| 20260503205616 | 49 | 293 | 1.0 | 2.0 | 0.00 | 0.00 | 0.00 | 49 | 1034.9 |
| 20260503205113 | 48 | 315 | 1.0 | 1.0 | 0.00 | 0.00 | 0.00 | 49 | 1034.8 |
| 20260503204610 | 48 | 336 | 1.0 | 1.0 | 0.00 | 0.00 | 0.00 | 47 | 1034.9 |
| 20260503204107 | 48 | 250 | 2.0 | 3.0 | 0.00 | 0.00 | 0.00 | 47 | 1034.7 |
| 20260503203604 | 49 | 300 | 1.0 | 2.0 | 0.00 | 0.00 | 0.00 | 46 | 1034.7 |
| 20260503203101 | 50 | 302 | 1.0 | 2.0 | 0.00 | 0.00 | 0.00 | 45 | 1034.6 |
| 20260503202559 | 51 | 353 | 0.0 | 1.0 | 0.00 | 0.00 | 0.00 | 46 | 1034.6 |
| 20260503202057 | 49 | 341 | 0.0 | 0.0 | 0.00 | 0.00 | 0.00 | 47 | 1034.7 |
| 20260503201555 | 48 | 321 | 0.0 | 1.0 | 0.00 | 0.00 | 0.00 | 47 | 1034.7 |
| 20260503201052 | 48 | 298 | 1.0 | 1.0 | 0.00 | 0.00 | 0.00 | 46 | 1034.6 |
| 20260503200548 | 49 | 295 | 1.0 | 2.0 | 0.00 | 0.00 | 0.00 | 44 | 1034.7 |
| 20260503200044 | 49 | 315 | 1.0 | 2.0 | 0.00 | 0.00 | 0.00 | 44 | 1034.5 |
| 20260503195542 | 51 | 312 | 2.0 | 3.0 | 0.00 | 0.00 | 0.00 | 41 | 1034.5 |
| 20260503195038 | 51 | 335 | 1.0 | 2.0 | 0.00 | 0.00 | 0.00 | 47 | 1034.7 |
| 20260503194536 | 50 | 310 | 1.0 | 2.0 | 0.00 | 0.00 | 0.00 | 45 | 1034.5 |
| 20260503194035 | 50 | 296 | 1.0 | 1.0 | 0.00 | 0.00 | 0.00 | 44 | 1034.6 |
| 20260503193532 | 50 | 359 | 0.0 | 0.0 | 0.00 | 0.00 | 0.00 | 43 | 1034.7 |
| 20260503193027 | 50 | 270 | 3.0 | 3.0 | 0.00 | 0.00 | 0.00 | 43 | 1034.6 |
| 20260503192524 | 49 | 284 | 3.0 | 3.0 | 0.00 | 0.00 | 0.00 | 43 | 1034.7 |
| 20260503192020 | 50 | 317 | 1.0 | 1.0 | 0.00 | 0.00 | 0.00 | 44 | 1034.5 |
| 20260503191517 | 50 | 314 | 1.0 | 1.0 | 0.00 | 0.00 | 0.00 | 43 | 1034.5 |
| 20260503191014 | 49 | 34 | 0.0 | 1.0 | 0.00 | 0.00 | 0.00 | 44 | 1034.4 |
| 20260503190511 | 49 | 298 | 1.0 | 2.0 | 0.00 | 0.00 | 0.00 | 43 | 1034.5 |
| 20260503190008 | 50 | 290 | 2.0 | 2.0 | 0.00 | 0.00 | 0.00 | 43 | 1034.7 |
| 20260503185504 | 50 | 280 | 2.0 | 2.0 | 0.00 | 0.00 | 0.00 | 43 | 1034.7 |
| 20260503185004 | 50 | 305 | 1.0 | 2.0 | 0.00 | 0.00 | 0.00 | 44 | 1034.2 |
| 20260503184500 | 51 | 284 | 2.0 | 3.0 | 0.00 | 0.00 | 0.00 | 40 | 1034.5 |
| 20260503183956 | 50 | 314 | 1.0 | 1.0 | 0.00 | 0.00 | 0.00 | 43 | 1034.5 |
| 20260503183453 | 49 | 323 | 0.0 | 1.0 | 0.00 | 0.00 | 0.00 | 43 | 1034.7 |
| 20260503182950 | 49 | 64 | 1.0 | 1.0 | 0.00 | 0.00 | 0.00 | 43 | 1034.6 |
| 20260503182449 | 49 | 315 | 1.0 | 2.0 | 0.00 | 0.00 | 0.00 | 43 | 1034.7 |
| 20260503181946 | 50 | 307 | 0.0 | 1.0 | 0.00 | 0.00 | 0.00 | 43 | 1034.3 |
| 20260503181444 | 50 | 346 | 0.0 | 0.0 | 0.00 | 0.00 | 0.00 | 43 | 1034.4 |
| 20260503180939 | 49 | 102 | 6.0 | 11.0 | 0.00 | 0.00 | 0.00 | 42 | 1034.6 |
| 20260503180438 | 50 | 354 | 2.0 | 2.0 | 0.00 | 0.00 | 0.00 | 42 | 1034.4 |
| 20260503175934 | 48 | 328 | 0.0 | 1.0 | 0.00 | 0.00 | 0.00 | 48 | 1034.5 |
| 20260503175432 | 48 | 292 | 0.0 | 1.0 | 0.00 | 0.00 | 0.00 | 47 | 1034.6 |
| 20260503174928 | 48 | 64 | 0.0 | 1.0 | 0.00 | 0.00 | 0.00 | 47 | 1034.5 |
| 20260503174426 | 48 | 21 | 1.0 | 2.0 | 0.00 | 0.00 | 0.00 | 48 | 1034.3 |
| 20260503173926 | 49 | 292 | 0.0 | 1.0 | 0.00 | 0.00 | 0.00 | 46 | 1034.1 |
| 20260503173423 | 50 | 289 | 1.0 | 2.0 | 0.00 | 0.00 | 0.00 | 44 | 1034.2 |
| 20260503172920 | 49 | 293 | 2.0 | 3.0 | 0.00 | 0.00 | 0.00 | 42 | 1034.2 |
| 20260503172417 | 49 | 328 | 1.0 | 1.0 | 0.00 | 0.00 | 0.00 | 43 | 1034.2 |
| 20260503171913 | 50 | 195 | 1.0 | 1.0 | 0.00 | 0.00 | 0.00 | 42 | 1034.1 |
| 20260503171410 | 50 | 305 | 0.0 | 1.0 | 0.00 | 0.00 | 0.00 | 44 | 1034.4 |
| 20260503170908 | 49 | 252 | 2.0 | 3.0 | 0.00 | 0.00 | 0.00 | 42 | 1034.3 |
| 20260503170403 | 49 | 283 | 1.0 | 2.0 | 0.00 | 0.00 | 0.00 | 42 | 1034.2 |
| 20260503150756 | 46 | 301 | 0.0 | 1.0 | 0.00 | 0.00 | 0.00 | 60 | 1035.1 |
| 20260503150252 | 46 | 19 | 1.0 | 1.0 | 0.00 | 0.00 | 0.00 | 62 | 1035.1 |
| 20260503140216 | 45 | 346 | 0.0 | 0.0 | 0.00 | 0.00 | 0.00 | 71 | 1035.3 |
| 20260503131146 | 44 | 18 | 1.0 | 1.0 | 0.00 | 0.00 | 0.00 | 79 | 1035.5 |
| 20260503130643 | 44 | 330 | 0.0 | 0.0 | 0.00 | 0.00 | 0.00 | 83 | 1035.7 |
| 20260503130141 | 43 | 319 | 0.0 | 1.0 | 0.00 | 0.00 | 0.00 | 83 | 1035.6 |
| 20260503120106 | 41 | 340 | 0.0 | 0.0 | 0.00 | 0.00 | 0.00 | 86 | 1035.8 |
| 20260503110533 | 40 | 33 | 1.0 | 1.0 | 0.00 | 0.00 | 0.00 | 90 | 1035.8 |
| 20260503090420 | 39 | 351 | 0.0 | 0.0 | 0.00 | 0.00 | 0.00 | 95 | 1035.5 |
| 20260503081347 | 39 | 351 | 0.0 | 0.0 | 0.00 | 0.00 | 0.00 | 95 | 1036.1 |
| 20260503080843 | 39 | 351 | 0.0 | 0.0 | 0.00 | 0.00 | 0.00 | 95 | 1036.4 |
| 20260503080341 | 39 | 351 | 0.0 | 0.0 | 0.00 | 0.00 | 0.00 | 95 | 1036.3 |
| 20260503072817 | 39 | 351 | 0.0 | 0.0 | 0.00 | 0.00 | 0.00 | 95 | 1036.2 |
| 20260503072314 | 39 | 351 | 0.0 | 0.0 | 0.00 | 0.00 | 0.00 | 95 | 1036.5 |
| 20260503071810 | 39 | 351 | 0.0 | 0.0 | 0.00 | 0.00 | 0.00 | 95 | 1036.4 |
| 20260503071308 | 39 | 351 | 0.0 | 0.0 | 0.00 | 0.00 | 0.00 | 95 | 1036.4 |
| 20260503070803 | 39 | 351 | 0.0 | 0.0 | 0.00 | 0.00 | 0.00 | 95 | 1036.6 |
| 20260503070302 | 39 | 351 | 0.0 | 0.0 | 0.00 | 0.00 | 0.00 | 95 | 1036.7 |
| 20260503060221 | 39 | 347 | 0.0 | 0.0 | 0.00 | 0.00 | 0.00 | 95 | 1037.1 |
| 20260503054708 | 39 | 347 | 0.0 | 0.0 | 0.00 | 0.00 | 0.00 | 96 | 1037.3 |
| 20260503054205 | 39 | 347 | 0.0 | 0.0 | 0.00 | 0.00 | 0.00 | 97 | 1037.4 |